Location: Carrières
(48.9495°N, 2.0407°E)
Time: 16:54:39
(UTC+00:00)

NOSS 2-1 (D) - Visible Passes

Search period start: 30 September 2023 00:00
Search period end: 10 October 2023 00:00
Orbit: 396 x 1763 km, 63.3° (Epoch: 23 September)

Date Brightness Start Highest point End Pass type
(mag) Time Alt. Az. Time Alt. Az. Time Alt. Az.
30 Sep 5.8 04:46:03 10° N 04:47:29 12° NNE 04:49:03 10° NE visible
02 Oct 5.7 04:50:38 10° NNW 04:53:05 17° NNE 04:55:58 10° ENE visible
03 Oct 6.0 03:58:58 10° N 04:00:14 11° NNE 04:01:37 10° NE visible
04 Oct 5.5 04:55:22 10° NNW 04:58:30 25° NE 05:02:27 10° E visible
05 Oct 5.8 04:03:26 10° NNW 04:05:47 16° NNE 04:08:30 10° ENE visible
06 Oct 6.0 03:11:48 10° N 03:12:52 11° NNE 03:14:01 10° NE visible
06 Oct 4.9 05:00:07 10° NNW 05:03:44 40° NE 05:08:32 10° ESE visible
07 Oct 5.6 04:08:03 10° NNW 04:11:07 24° NE 04:14:55 10° E visible
08 Oct 5.9 03:16:42 12° N 03:18:21 15° NNE 03:20:53 10° ENE visible
08 Oct 4.0 05:04:56 10° NW 05:08:50 68° NE 05:14:13 10° SE visible
09 Oct 6.5 02:25:55 10° NNE 02:25:55 10° NNE 02:26:14 10° NNE visible
09 Oct 4.9 04:12:47 10° NNW 04:16:17 37° NE 04:20:59 10° ESE visible
